Home > Weather > Rochester > Past weeks

Flag for USA Past Weather in Rochester, New York, USA — Yesterday and Last 2 Weeks

Now
74 °F

Mostly cloudy.


Feels Like: 76 °F
Forecast: 73 / 84 °F
Wind: 6 mph from Southwest

Location: Greater Rochester International Airport

Current Time: Aug 25, 2016 at 4:12:51 AM

Latest Report: Aug 25, 2016 at 2:54 AM


Visibility: 10 mi

Pressure: 29.95 "Hg

Humidity: 67%

Dew Point: 62 °F

Location of RochesterLocation

Past Weather in Rochester — Graph

°F

Rochester Temperature Yesterday

Maximum temperature yesterday: 88 °F (at 3:54 PM)
Minimum temperature yesterday: 61 °F (at 5:54 AM)
Average temperature yesterday: 75 °F

High & Low Weather Summary for the Past Weeks

 TemperatureHumidityPressure
High95 °F (Aug 13, 12:54 PM)97% (Aug 15, 3:54 AM)30.31 "Hg (Aug 15, 3:54 AM)
Low56 °F (Aug 23, 3:54 AM)38% (Aug 24, 3:54 PM)29.66 "Hg (Aug 21, 5:54 AM)
Average76 °F71%30.00 "Hg
* Reported Aug 10 2:54 AM — Aug 25 2:54 AM, Rochester, Weather by CustomWeather, © 2016

Note: Actual official high and low records may vary slightly from our data, if they occured in-between our weather recording intervals... More about our weather records

Advertising

Rochester Weather History for the Previous 24 Hours

Scroll right to see more
 ConditionsComfort  
Time TempWeatherWind HumidityBarometerVisibility
2:54 AM
Thu, Aug 25
74 °FMostly cloudy.6 mph67%29.95 "Hg10 mi
1:54 AM73 °FMostly cloudy.3 mph69%29.98 "Hg10 mi
12:54 AM73 °FOvercast.6 mph66%29.99 "Hg10 mi
11:54 PM
Wed, Aug 24
74 °FPartly cloudy.5 mph64%30.02 "Hg10 mi
10:54 PM74 °FPartly cloudy.3 mph67%30.03 "Hg10 mi
9:54 PM73 °FPassing clouds.5 mph71%30.05 "Hg10 mi
8:54 PM75 °FPartly sunny.3 mph64%30.05 "Hg10 mi
7:54 PM82 °FBroken clouds.3 mph46%30.04 "Hg10 mi
6:54 PM84 °FBroken clouds.6 mph43%30.04 "Hg10 mi
5:54 PM87 °FPartly sunny.14 mph39%30.06 "Hg10 mi
4:54 PM88 °FPartly sunny.14 mph39%30.06 "Hg10 mi
3:54 PM88 °FPassing clouds.13 mph38%30.09 "Hg10 mi
2:54 PM87 °FPassing clouds.18 mph39%30.11 "Hg10 mi
1:54 PM86 °FPassing clouds.13 mph43%30.13 "Hg10 mi
12:54 PM84 °FScattered clouds.13 mph46%30.16 "Hg10 mi
11:54 AM83 °FScattered clouds.15 mph48%30.18 "Hg10 mi
10:54 AM79 °FPassing clouds.9 mph56%30.21 "Hg10 mi
9:54 AM74 °FPassing clouds.8 mph62%30.22 "Hg10 mi
8:54 AM69 °FPassing clouds.8 mph73%30.24 "Hg10 mi
7:54 AM65 °FScattered clouds.10 mph78%30.25 "Hg10 mi
6:54 AM62 °FPassing clouds.7 mph86%30.25 "Hg10 mi
5:54 AM61 °FPassing clouds.8 mph87%30.24 "Hg10 mi
4:54 AM62 °FClear.7 mph86%30.22 "Hg10 mi
Weather by CustomWeather, © 2016

See weather overviewHow to use our weather pages